[[{"header":{"parameterUnit":"m.s-1","parameterCategory":1,"la1":30.2991,"la2":30.254,"lo1":-89.0895,"lo2":-89.0444,"dy":0.0017,"dx":0.0017,"nx":28,"ny":28,"refTime":"2025-05-26T21:00:00:Z","depth":0,"parameterNumber":2,"parameterNumberName":"U-component_of_WINDS"},"data":[0,0,0,0,0,0,0,0,0,0,0,0,0,0,0,0,0,0,0,0,0,0,0,0,0,0,0,0,0,0,0,0,0,0,0,0,0,0,0,0,0,0,0,0,0,0,0,0,0,0,0,0,0,0,0,0,0,0,-0.1975,-0.1975,0,-0.1959,-0.1959,-0.1958,-0.2007,-0.2009,-0.2011,-0.2012,-0.199,-0.1988,-0.1986,0,0,0,0,0,0,0,0,0,0,0,0,0,-0.2045,-0.2044,-0.1975,-0.1975,-0.1975,-0.1959,-0.1959,-0.1958,-0.2007,-0.2009,-0.2011,-0.2013,-0.1991,-0.1988,-0.1986,0,0,0,0,0,0,0,0,0,0,0,0,0,-0.202,-0.2043,-0.1975,-0.1997,-0.1999,-0.1959,-0.1959,-0.1958,-0.2007,-0.2009,-0.2011,-0.2014,-0.1991,-0.1989,-0.1986,-0.1922,0,0,-0.1976,-0.1975,0,0,0,0,0,0,0,0,-0.2022,-0.2018,-0.1994,-0.1996,-0.1998,-0.1988,-0.1975,-0.1946,-0.2006,-0.2004,-0.2012,-0.2015,-0.1987,-0.1985,-0.1976,-0.1921,-0.192,-0.1976,-0.1974,-0.1973,-0.1972,0,0,0,0,0,0,0,-0.2023,-0.2019,-0.1969,-0.1994,-0.1996,-0.2007,-0.2006,-0.197,-0.1983,-0.2004,-0.2008,-0.2005,-0.1988,-0.1979,-0.1976,-0.1919,-0.1976,-0.1974,-0.1972,-0.1971,-0.1811,-0.1809,0,0,0,0,0,0,-0.2023,-0.202,-0.1969,-0.1968,-0.2016,-0.2004,-0.2003,-0.1988,-0.1983,-0.1985,-0.2003,-0.2008,-0.1983,-0.198,-0.1976,-0.1901,-0.1973,-0.197,-0.1969,-0.1813,-0.1811,-0.1808,0,0,0,0,0,0,-0.2024,-0.2018,-0.197,-0.1995,-0.199,-0.2,-0.1984,-0.1987,-0.1978,-0.1983,-0.1985,-0.1992,-0.1985,-0.198,-0.1935,-0.19,-0.1969,-0.1966,-0.1816,-0.1813,-0.1809,-0.175,0,0,0,0,0,0,-0.2026,-0.2018,-0.1994,-0.1994,-0.1988,-0.193,-0.1982,-0.1985,-0.1973,-0.1978,-0.1972,-0.1973,-0.1986,-0.1939,-0.1932,-0.1898,-0.1964,-0.1819,-0.1815,-0.181,-0.1755,-0.1744,-0.1735,0,0,0,0,0,-0.2028,-0.1977,-0.1993,-0.1986,-0.1959,-0.1928,-0.1925,-0.1942,-0.197,-0.1946,-0.195,-0.1974,-0.1906,-0.1934,-0.1927,-0.1891,-0.1822,-0.1816,-0.1811,-0.1759,-0.1746,-0.1736,0,0,0,0,0,0,-0.197,-0.1977,-0.1995,-0.1942,-0.1935,-0.1937,-0.1906,-0.1928,-0.191,-0.1916,-0.1937,-0.1935,-0.1886,-0.1884,-0.1916,-0.1829,-0.1868,-0.1861,-0.1832,-0.182,-0.181,-0.1811,-0.1961,0,0,0,0,0,-0.1952,-0.1927,-0.1934,-0.1887,-0.1883,-0.1895,-0.1882,-0.1897,-0.1889,-0.1885,-0.1885,-0.1876,-0.1852,-0.1836,-0.1815,-0.1755,-0.1754,-0.1727,-0.1717,-0.1709,-0.1702,-0.1671,-0.1659,-0.179,-0.179,-0.179,0,0,-0.1912,-0.1913,-0.1896,-0.1875,-0.1871,-0.1845,-0.1892,-0.1861,-0.1842,-0.188,-0.1838,-0.1838,-0.1829,-0.1777,-0.1754,-0.1773,-0.1666,-0.1702,-0.1696,-0.1693,-0.1664,-0.1651,-0.164,-0.1786,-0.1787,-0.1787,0,0,-0.1827,-0.1825,-0.1786,-0.1782,-0.1776,-0.1785,-0.1776,-0.1775,-0.1777,-0.1736,-0.1765,-0.1741,-0.17,-0.1693,-0.1683,-0.1598,-0.1619,-0.159,-0.1539,-0.1509,-0.1498,-0.1489,-0.1458,-0.1447,-0.1584,-0.1583,-0.1583,0,-0.1778,-0.174,-0.1763,-0.1731,-0.1721,-0.1758,-0.1718,-0.1712,-0.1698,-0.169,-0.1713,-0.1664,-0.166,-0.1607,-0.1586,-0.1577,-0.1567,-0.159,-0.1498,-0.1489,-0.1481,-0.1452,-0.144,-0.158,-0.158,-0.1581,-0.1581,0,-0.168,-0.1654,-0.1623,-0.1611,-0.1598,-0.1562,-0.1579,-0.1562,-0.1578,-0.1585,-0.1543,-0.154,-0.1519,-0.1508,-0.1522,-0.1457,-0.147,-0.1495,-0.1535,-0.1465,-0.1437,-0.1426,-0.1575,-0.1576,-0.1577,-0.1578,0,0,-0.1555,-0.1559,-0.1547,-0.1543,-0.154,-0.1519,-0.1485,-0.1467,-0.1453,-0.1443,-0.1414,-0.138,-0.1405,-0.1394,-0.1408,-0.1381,-0.1313,-0.141,-0.141,-0.1391,-0.124,-0.122,-0.1207,-0.1329,-0.1327,-0.1325,-0.1241,0,-0.147,-0.1414,-0.1434,-0.1376,-0.1352,-0.1387,-0.1358,-0.1352,-0.1358,-0.1338,-0.1344,-0.1319,-0.1353,-0.1347,-0.1323,-0.1327,-0.1283,-0.1333,-0.13,-0.1299,-0.13,-0.1193,-0.1171,-0.1092,-0.1231,-0.1229,-0.1227,0,-0.1364,-0.1352,-0.1292,-0.1295,-0.1285,-0.1258,-0.1244,-0.1225,-0.1219,-0.1225,-0.1215,-0.1235,-0.1202,-0.1243,-0.1196,-0.123,-0.1218,-0.1218,-0.1216,-0.1212,-0.1258,-0.1185,-0.1067,-0.1054,-0.1211,-0.1212,-0.1213,0,-0.1277,-0.1247,-0.1207,-0.1202,-0.1205,-0.1185,-0.1185,-0.1182,-0.1171,-0.1158,-0.115,-0.1133,-0.1123,-0.1108,-0.1123,-0.1153,-0.1074,-0.1117,-0.1077,-0.1076,-0.1057,-0.1057,-0.0934,-0.1051,-0.1052,-0.1052,-0.1052,0,-0.118,-0.1141,-0.1169,-0.1144,-0.1102,-0.1126,-0.1083,-0.1087,-0.1085,-0.1061,-0.109,-0.1067,-0.1089,-0.1067,-0.1078,-0.1038,-0.1033,-0.1036,-0.1039,-0.1032,-0.1032,-0.1024,-0.1029,-0.1049,-0.1049,-0.105,-0.1051,0,-0.1076,-0.1092,-0.1052,-0.1058,-0.1059,-0.1028,-0.1033,-0.101,-0.102,-0.0989,-0.0983,-0.0996,-0.0972,-0.0987,-0.0962,-0.097,-0.0916,-0.0927,-0.0918,-0.0921,-0.088,-0.0883,-0.0745,-0.0728,-0.0858,-0.0856,-0.0855,0,-0.1012,-0.0983,-0.0988,-0.0975,-0.0974,-0.0952,-0.0941,-0.0964,-0.0951,-0.0944,-0.0922,-0.0901,-0.0886,-0.0846,-0.0852,-0.0834,-0.0844,-0.0797,-0.0841,-0.0835,-0.0842,-0.0843,-0.084,-0.0787,-0.0786,-0.0785,-0.0784,0,-0.0896,-0.0907,-0.089,-0.0877,-0.0864,-0.0854,-0.0847,-0.0834,-0.0857,-0.0841,-0.0819,-0.0807,-0.0783,-0.0761,-0.0746,-0.0744,-0.0767,-0.077,-0.076,-0.0752,-0.0747,-0.0748,-0.0893,-0.0773,-0.0774,-0.0775,-0.0775,-0.0776,-0.0809,-0.0786,-0.0787,-0.0768,-0.0765,-0.0758,-0.0737,-0.0745,-0.0727,-0.0711,-0.0725,-0.0698,-0.0694,-0.0676,-0.0672,-0.065,-0.0669,-0.0654,-0.065,-0.0645,-0.0639,-0.0753,-0.0647,-0.0648,-0.0648,-0.0648,-0.0649,0,-0.0695,-0.0697,-0.068,-0.067,-0.0655,-0.0682,-0.0675,-0.066,-0.0637,-0.0632,-0.0617,-0.0591,-0.0571,-0.0577,-0.0559,-0.0541,-0.055,-0.0535,-0.0535,-0.0535,-0.0624,-0.0634,-0.0527,-0.0527,-0.0527,-0.0527,-0.0527,-0.0527,-0.0633,-0.0596,-0.0606,-0.0568,-0.057,-0.0545,-0.0539,-0.0533,-0.053,-0.05,-0.0484,-0.049,-0.0489,-0.0472,-0.0454,-0.0457,-0.0448,-0.0428,-0.0434,-0.0516,-0.0528,-0.054,-0.055,-0.0426,-0.0426,-0.0346,-0.0346,-0.0345]},{"header":{"parameterUnit":"m.s-1","parameterCategory":1,"la1":30.2991,"la2":30.254,"lo1":-89.0895,"lo2":-89.0444,"dy":0.0017,"dx":0.0017,"nx":28,"ny":28,"refTime":"2025-05-26T21:00:00:Z","depth":0,"parameterNumber":3,"parameterNumberName":"V-component_of_WINDS"},"data":[0,0,0,0,0,0,0,0,0,0,0,0,0,0,0,0,0,0,0,0,0,0,0,0,0,0,0,0,0,0,0,0,0,0,0,0,0,0,0,0,0,0,0,0,0,0,0,0,0,0,0,0,0,0,0,0,0,0,4.7045,4.7044,0,4.7017,4.7016,4.7016,4.6907,4.6905,4.6902,4.69,4.6872,4.6873,4.6875,0,0,0,0,0,0,0,0,0,0,0,0,0,4.7005,4.7007,4.7045,4.7044,4.7044,4.7017,4.7016,4.7016,4.6907,4.6904,4.6901,4.6899,4.6871,4.6873,4.6875,0,0,0,0,0,0,0,0,0,0,0,0,0,4.7005,4.7007,4.7045,4.6987,4.6981,4.7017,4.7016,4.7016,4.6908,4.6904,4.6901,4.6897,4.6871,4.6873,4.6875,4.6965,0,0,4.6883,4.6884,0,0,0,0,0,0,0,0,4.7005,4.7006,4.6995,4.6991,4.6985,4.6961,4.6992,4.6999,4.6909,4.6936,4.69,4.6895,4.6905,4.6904,4.6907,4.6964,4.6963,4.6883,4.6884,4.6885,4.6886,0,0,0,0,0,0,0,4.7005,4.7007,4.7034,4.6995,4.6989,4.6962,4.6958,4.6993,4.6942,4.6933,4.6925,4.6923,4.6901,4.6905,4.6906,4.6962,4.6883,4.6885,4.6886,4.6887,4.7091,4.7095,0,0,0,0,0,0,4.7013,4.7008,4.7034,4.7033,4.6986,4.6966,4.6961,4.6973,4.6941,4.6933,4.6927,4.6918,4.6903,4.6903,4.6904,4.7006,4.6885,4.6888,4.6889,4.7087,4.7092,4.7096,0,0,0,0,0,0,4.7013,4.7017,4.7036,4.7018,4.7018,4.6971,4.6984,4.6974,4.6978,4.6936,4.6926,4.694,4.69,4.6901,4.6951,4.7004,4.6889,4.6891,4.7083,4.7089,4.7094,4.7213,0,0,0,0,0,0,4.7012,4.7017,4.705,4.702,4.702,4.7082,4.6988,4.6976,4.6982,4.6971,4.6946,4.6938,4.6897,4.6948,4.6953,4.7005,4.6893,4.7078,4.7085,4.7092,4.7204,4.7222,4.7237,0,0,0,0,0,4.7011,4.7085,4.7053,4.7056,4.706,4.7086,4.7086,4.7036,4.6987,4.702,4.6993,4.6939,4.6998,4.6954,4.6959,4.7013,4.7074,4.7083,4.7092,4.7196,4.7218,4.7237,0,0,0,0,0,0,4.7123,4.708,4.7043,4.711,4.7102,4.7067,4.7107,4.7062,4.7068,4.7058,4.6997,4.6992,4.7051,4.7037,4.6988,4.7098,4.7027,4.7037,4.7104,4.7125,4.7142,4.7143,4.6895,0,0,0,0,0,4.7156,4.718,4.7141,4.7203,4.7201,4.7156,4.7165,4.7128,4.7117,4.7114,4.709,4.7083,4.71,4.7112,4.7125,4.7202,4.7195,4.7241,4.7258,4.7272,4.7282,4.7321,4.7341,4.7126,4.7126,4.7126,0,0,4.7223,4.7202,4.7221,4.7225,4.7215,4.7241,4.7153,4.7185,4.7204,4.7119,4.7163,4.7147,4.7135,4.7198,4.7225,4.7189,4.734,4.7284,4.7295,4.7297,4.7332,4.7352,4.7371,4.7132,4.7131,4.713,0,0,4.7358,4.7346,4.7396,4.7388,4.7373,4.7343,4.7355,4.7327,4.7313,4.7357,4.7294,4.7316,4.7346,4.734,4.7341,4.7476,4.7426,4.7482,4.7569,4.7608,4.7625,4.764,4.7687,4.7705,4.7492,4.7492,4.7492,0,4.7444,4.748,4.7427,4.7463,4.7466,4.7391,4.7441,4.7436,4.7427,4.7432,4.7391,4.7427,4.7414,4.7474,4.7508,4.7511,4.7523,4.7483,4.7627,4.7641,4.7654,4.7698,4.7716,4.7499,4.7498,4.7497,4.7497,0,4.7585,4.7612,4.7654,4.7647,4.7656,4.7699,4.7653,4.7668,4.7631,4.7605,4.7651,4.7633,4.7641,4.7653,4.7617,4.7709,4.7686,4.7638,4.7565,4.7682,4.7723,4.7739,4.7508,4.7506,4.7504,4.7502,0,0,4.7788,4.7752,4.7769,4.7764,4.7744,4.7764,4.7804,4.7811,4.7825,4.7823,4.7854,4.7882,4.7837,4.7838,4.7801,4.7836,4.7943,4.7782,4.7781,4.7812,4.8043,4.8078,4.8099,4.7911,4.7914,4.7916,4.8043,0,4.7916,4.7981,4.7935,4.8008,4.8032,4.7962,4.7997,4.7988,4.7966,4.7983,4.7958,4.7978,4.7918,4.7918,4.7949,4.7923,4.7988,4.7914,4.7939,4.7941,4.7942,4.812,4.8158,4.8278,4.8059,4.8061,4.8063,0,4.8072,4.8076,4.8152,4.8127,4.8135,4.8167,4.8171,4.8189,4.8178,4.8159,4.8162,4.8116,4.8154,4.8084,4.8135,4.8086,4.8094,4.8083,4.8087,4.8085,4.8008,4.8122,4.8315,4.8333,4.8088,4.8086,4.8084,0,4.8211,4.8236,4.8284,4.8283,4.8255,4.828,4.8269,4.8255,4.8263,4.8266,4.8271,4.8279,4.8284,4.8291,4.8249,4.8203,4.8306,4.8233,4.8291,4.8292,4.8314,4.8313,4.851,4.8323,4.8323,4.8322,4.8322,0,4.8357,4.8406,4.8346,4.8375,4.8428,4.8376,4.8429,4.8412,4.84,4.8425,4.8366,4.8391,4.8335,4.8355,4.8323,4.8369,4.8372,4.8358,4.8348,4.8362,4.8364,4.8365,4.8355,4.8327,4.8326,4.8325,4.8324,0,4.852,4.8482,4.8529,4.85,4.8494,4.8534,4.8508,4.8535,4.8509,4.8542,4.8546,4.8506,4.8526,4.8485,4.85,4.8478,4.8545,4.8523,4.8548,4.8541,4.8601,4.8595,4.8804,4.8828,4.8628,4.863,4.8631,0,4.8614,4.865,4.8625,4.8637,4.863,4.8651,4.8659,4.861,4.862,4.8612,4.8639,4.8654,4.8663,4.8699,4.8671,4.8682,4.8659,4.8731,4.866,4.8673,4.8658,4.8656,4.8659,4.8745,4.8748,4.875,4.8752,0,4.8786,4.8765,4.8778,4.8786,4.8797,4.88,4.8799,4.8813,4.876,4.8776,4.8795,4.8802,4.8818,4.8833,4.8838,4.8828,4.8781,4.8775,4.8788,4.8802,4.8814,4.8807,4.8586,4.8769,4.8768,4.8766,4.8765,4.8765,4.8916,4.8944,4.8931,4.8948,4.8942,4.8943,4.8966,4.8944,4.8959,4.8967,4.8938,4.8964,4.8954,4.8955,4.895,4.8971,4.8938,4.8959,4.8963,4.8969,4.8978,4.8813,4.8972,4.8971,4.8971,4.897,4.897,0,4.9083,4.9071,4.9087,4.9088,4.9102,4.9058,4.9055,4.9069,4.9093,4.9087,4.9098,4.9121,4.9136,4.911,4.9121,4.9143,4.9122,4.9147,4.9144,4.9142,4.9007,4.8993,4.9164,4.9164,4.9164,4.9164,4.9164,4.9164,4.9171,4.9217,4.9195,4.9238,4.9226,4.9251,4.9253,4.9254,4.9249,4.9277,4.929,4.9273,4.9259,4.9269,4.9282,4.9274,4.928,4.9313,4.9297,4.9171,4.9152,4.9134,4.912,4.9315,4.9315,4.9431,4.9432,4.9433]}]]